When you browse on this site, cookies collect data to enhance your experience and personalize the content and advertising you see.
Visit our Privacy Policy to learn more. By continuing to use the site, you agree to this use of cookies and data.
  • en France
  • Liste des pays
  • À 7 jours
  • Température de l'eau
  • Carte météo
  • Widgets météo
  • user-avatar
    Se connecter

    Météo par heure à Hartford

    Ce jour, 16 Septembre, Lundi

    Heure Température Précipitation Vent Pression Humidité
    00:00 +12°C° 0.6 mm 0 m/s 763 mmHg 92%
    01:00 +13°C° 0.1 mm 1 m/s 763 mmHg 92%
    02:00 +13°C° 0.1 mm 1 m/s 762 mmHg 91%
    03:00 +13°C° 0.1 mm 1 m/s 762 mmHg 91%
    04:00 +13°C° 0 mm 1 m/s 762 mmHg 90%
    05:00 +13°C° 0 mm 1 m/s 762 mmHg 89%
    06:00 +13°C° 0 mm 1 m/s 762 mmHg 88%
    07:00 +13°C° 0 mm 1 m/s 762 mmHg 84%
    08:00 +14°C° 0 mm 1 m/s 763 mmHg 81%
    09:00 +15°C° 0 mm 1 m/s 763 mmHg 78%
    10:00 +16°C° 0 mm 2 m/s 763 mmHg 73%
    11:00 +17°C° 0 mm 2 m/s 763 mmHg 68%
    12:00 +18°C° 0 mm 3 m/s 763 mmHg 64%
    13:00 +17°C° 0 mm 3 m/s 763 mmHg 64%
    14:00 +17°C° 0 mm 4 m/s 763 mmHg 64%
    15:00 +17°C° 0 mm 4 m/s 763 mmHg 64%
    16:00 +15°C° 0 mm 4 m/s 763 mmHg 68%
    17:00 +14°C° 0 mm 4 m/s 763 mmHg 71%
    18:00 +12°C° 0 mm 4 m/s 763 mmHg 75%
    19:00 +12°C° 0 mm 3 m/s 764 mmHg 78%
    20:00 +11°C° 0 mm 3 m/s 764 mmHg 80%
    21:00 +10°C° 0 mm 2 m/s 765 mmHg 83%
    22:00 +10°C° 0 mm 2 m/s 765 mmHg 84%
    23:00 +10°C° 0 mm 2 m/s 765 mmHg 85%

    Demain, 17 Septembre, Mardi

    Heure Température Précipitation Vent Pression Humidité
    00:00 +10°C° 0 mm 2 m/s 765 mmHg 87%
    01:00 +10°C° 0 mm 2 m/s 765 mmHg 86%
    02:00 +10°C° 0 mm 2 m/s 765 mmHg 86%
    03:00 +9°C° 0 mm 2 m/s 765 mmHg 86%
    04:00 +9°C° 0 mm 2 m/s 765 mmHg 85%
    05:00 +9°C° 0 mm 2 m/s 765 mmHg 84%
    06:00 +9°C° 0 mm 2 m/s 766 mmHg 84%
    07:00 +11°C° 0 mm 3 m/s 766 mmHg 78%
    08:00 +12°C° 0 mm 3 m/s 766 mmHg 73%
    09:00 +13°C° 0 mm 4 m/s 766 mmHg 68%
    10:00 +14°C° 0 mm 4 m/s 766 mmHg 66%
    11:00 +14°C° 0 mm 3 m/s 766 mmHg 63%
    12:00 +16°C° 0 mm 3 m/s 766 mmHg 61%
    13:00 +16°C° 0 mm 3 m/s 766 mmHg 60%
    14:00 +15°C° 0 mm 4 m/s 766 mmHg 60%
    15:00 +17°C° 0 mm 4 m/s 766 mmHg 60%
    16:00 +14°C° 0 mm 3 m/s 766 mmHg 64%
    17:00 +13°C° 0 mm 3 m/s 766 mmHg 69%
    18:00 +13°C° 0 mm 2 m/s 766 mmHg 73%
    19:00 +13°C° 0 mm 2 m/s 767 mmHg 76%
    20:00 +12°C° 0 mm 1 m/s 767 mmHg 78%
    21:00 +11°C° 0 mm 1 m/s 768 mmHg 80%
    22:00 +11°C° 0 mm 1 m/s 768 mmHg 81%
    23:00 +10°C° 0 mm 1 m/s 768 mmHg 82%

    Après-demain, 18 Septembre, Mercredi

    Heure Température Précipitation Vent Pression Humidité
    00:00 +10°C° 0 mm 1 m/s 768 mmHg 82%
    01:00 +9°C° 0 mm 1 m/s 768 mmHg 83%
    02:00 +9°C° 0 mm 1 m/s 768 mmHg 83%
    03:00 +9°C° 0 mm 1 m/s 768 mmHg 84%
    04:00 +9°C° 0 mm 1 m/s 768 mmHg 85%
    05:00 +9°C° 0 mm 1 m/s 768 mmHg 86%
    06:00 +8°C° 0 mm 1 m/s 768 mmHg 88%
    07:00 +10°C° 0 mm 1 m/s 768 mmHg 83%
    08:00 +12°C° 0 mm 1 m/s 768 mmHg 79%
    09:00 +13°C° 0 mm 1 m/s 768 mmHg 74%
    10:00 +15°C° 0 mm 1 m/s 768 mmHg 69%
    11:00 +16°C° 0 mm 2 m/s 768 mmHg 65%
    12:00 +17°C° 0 mm 2 m/s 768 mmHg 61%
    13:00 +18°C° 0 mm 2 m/s 768 mmHg 61%
    14:00 +18°C° 0 mm 3 m/s 767 mmHg 62%
    15:00 +18°C° 0 mm 3 m/s 767 mmHg 63%
    16:00 +17°C° 0 mm 3 m/s 767 mmHg 68%
    17:00 +16°C° 0 mm 3 m/s 767 mmHg 73%
    18:00 +13°C° 0 mm 3 m/s 767 mmHg 78%
    19:00 +14°C° 0 mm 2 m/s 768 mmHg 81%
    20:00 +13°C° 0 mm 2 m/s 768 mmHg 83%
    21:00 +12°C° 0 mm 2 m/s 768 mmHg 86%
    22:00 +12°C° 0 mm 1 m/s 768 mmHg 88%
    23:00 +12°C° 0 mm 1 m/s 768 mmHg 89%

    19 Septembre, Jeudi

    Heure Température Précipitation Vent Pression Humidité
    00:00 +12°C° 0 mm 1 m/s 768 mmHg 91%
    01:00 +12°C° 0 mm 1 m/s 768 mmHg 91%
    02:00 +11°C° 0 mm 1 m/s 768 mmHg 92%
    03:00 +11°C° 0 mm 1 m/s 768 mmHg 93%
    04:00 +10°C° 0 mm 0 m/s 768 mmHg 93%
    05:00 +11°C° 0 mm 0 m/s 768 mmHg 93%
    06:00 +11°C° 0 mm 0 m/s 769 mmHg 93%
    07:00 +12°C° 0 mm 0 m/s 769 mmHg 89%
    08:00 +13°C° 0 mm 0 m/s 769 mmHg 86%
    09:00 +14°C° 0 mm 0 m/s 769 mmHg 83%
    10:00 +15°C° 0 mm 0 m/s 769 mmHg 79%
    11:00 +16°C° 0 mm 0 m/s 769 mmHg 76%
    12:00 +17°C° 0 mm 0 m/s 769 mmHg 72%
    13:00 +17°C° 0 mm 0 m/s 769 mmHg 71%
    14:00 +18°C° 0 mm 0 m/s 769 mmHg 69%
    15:00 +18°C° 0 mm 0 m/s 769 mmHg 68%
    16:00 +17°C° 0 mm 0 m/s 769 mmHg 71%
    17:00 +16°C° 0 mm 0 m/s 769 mmHg 75%
    18:00 +18°C° 0 mm 1 m/s 768 mmHg 79%
    19:00 +15°C° 0 mm 0 m/s 769 mmHg 81%
    20:00 +14°C° 0 mm 0 m/s 769 mmHg 82%
    21:00 +14°C° 0 mm 0 m/s 769 mmHg 84%
    22:00 +14°C° 0 mm 1 m/s 769 mmHg 85%
    23:00 +14°C° 0 mm 1 m/s 769 mmHg 86%

    20 Septembre, Vendredi

    Heure Température Précipitation Vent Pression Humidité
    00:00 +14°C° 0 mm 1 m/s 769 mmHg 87%
    01:00 +14°C° 0 mm 1 m/s 768 mmHg 88%
    02:00 +13°C° 0 mm 1 m/s 768 mmHg 89%
    03:00 +13°C° 0 mm 2 m/s 768 mmHg 90%
    04:00 +13°C° 0 mm 2 m/s 768 mmHg 91%
    05:00 +13°C° 0 mm 2 m/s 767 mmHg 92%
    06:00 +12°C° 0 mm 2 m/s 767 mmHg 93%
    07:00 +14°C° 0 mm 2 m/s 767 mmHg 89%
    08:00 +14°C° 0 mm 3 m/s 767 mmHg 84%
    09:00 +16°C° 0 mm 3 m/s 767 mmHg 80%
    10:00 +17°C° 0 mm 3 m/s 766 mmHg 76%
    11:00 +18°C° 0 mm 4 m/s 766 mmHg 71%
    12:00 +19°C° 0 mm 4 m/s 766 mmHg 67%
    13:00 +19°C° 0 mm 4 m/s 765 mmHg 65%
    14:00 +20°C° 0 mm 4 m/s 764 mmHg 62%
    15:00 +20°C° 0 mm 4 m/s 764 mmHg 60%
    16:00 +19°C° 0 mm 4 m/s 763 mmHg 65%
    17:00 +18°C° 0 mm 4 m/s 763 mmHg 70%
    18:00 +16°C° 0 mm 3 m/s 762 mmHg 74%
    19:00 +15°C° 0 mm 4 m/s 762 mmHg 72%
    20:00 +14°C° 0 mm 4 m/s 762 mmHg 70%
    21:00 +13°C° 0 mm 4 m/s 762 mmHg 67%
    22:00 +12°C° 0 mm 4 m/s 762 mmHg 68%
    23:00 +12°C° 0 mm 5 m/s 761 mmHg 68%

    21 Septembre, Samedi

    Heure Température Précipitation Vent Pression Humidité
    00:00 +10°C° 0 mm 5 m/s 761 mmHg 68%
    01:00 +11°C° 0 mm 4 m/s 760 mmHg 71%
    02:00 +11°C° 0 mm 4 m/s 759 mmHg 73%
    03:00 +11°C° 0 mm 4 m/s 759 mmHg 75%
    04:00 +11°C° 0 mm 4 m/s 758 mmHg 75%
    05:00 +10°C° 0 mm 4 m/s 758 mmHg 75%
    06:00 +10°C° 0 mm 4 m/s 757 mmHg 75%
    07:00 +10°C° 0 mm 5 m/s 756 mmHg 71%
    08:00 +13°C° 0 mm 5 m/s 756 mmHg 67%
    09:00 +14°C° 0 mm 6 m/s 756 mmHg 63%
    10:00 +15°C° 0 mm 6 m/s 755 mmHg 61%
    11:00 +17°C° 0 mm 6 m/s 755 mmHg 60%
    12:00 +19°C° 0 mm 6 m/s 754 mmHg 58%
    13:00 +20°C° 0 mm 6 m/s 754 mmHg 60%
    14:00 +21°C° 0 mm 5 m/s 753 mmHg 61%
    15:00 +21°C° 0 mm 5 m/s 753 mmHg 63%
    16:00 +21°C° 0 mm 5 m/s 753 mmHg 68%
    17:00 +20°C° 0 mm 4 m/s 753 mmHg 74%
    18:00 +19°C° 0 mm 4 m/s 752 mmHg 79%
    19:00 +19°C° 0.1 mm 3 m/s 752 mmHg 82%
    20:00 +18°C° 0.1 mm 3 m/s 752 mmHg 85%
    21:00 +17°C° 0.1 mm 3 m/s 752 mmHg 88%
    22:00 +17°C° 0.2 mm 3 m/s 752 mmHg 89%
    23:00 +17°C° 0.2 mm 3 m/s 752 mmHg 90%
    Voir plus